TimePST,TemperatureF,Dew PointF,Humidity,Sea Level PressureIn,VisibilityMPH,Wind Direction,Wind SpeedMPH,Gust SpeedMPH,PrecipitationIn,Events,Conditions,WindDirDegrees,DateUTC
12:54 AM,37.9,27.0,65,30.27,10.0,Calm,Calm,-,N/A,,Clear,0,2013-02-28 08:54:00
1:54 AM,35.1,26.1,70,30.27,10.0,Calm,Calm,-,N/A,,Clear,0,2013-02-28 09:54:00
2:54 AM,33.1,25.0,72,30.25,10.0,Calm,Calm,-,N/A,,Clear,0,2013-02-28 10:54:00
3:54 AM,33.1,25.0,72,30.25,10.0,Calm,Calm,-,N/A,,Clear,0,2013-02-28 11:54:00
4:54 AM,32.0,24.1,73,30.26,10.0,Calm,Calm,-,N/A,,Clear,0,2013-02-28 12:54:00
5:54 AM,34.0,24.1,67,30.28,10.0,Calm,Calm,-,N/A,,Clear,0,2013-02-28 13:54:00
6:54 AM,36.0,25.0,64,30.29,10.0,Calm,Calm,-,N/A,,Clear,0,2013-02-28 14:54:00
7:54 AM,46.9,27.0,46,30.30,10.0,Calm,Calm,-,N/A,,Clear,0,2013-02-28 15:54:00
8:54 AM,61.0,25.0,25,30.29,10.0,Calm,Calm,-,N/A,,Clear,0,2013-02-28 16:54:00
9:54 AM,72.0,21.9,15,30.30,10.0,Calm,Calm,-,N/A,,Clear,0,2013-02-28 17:54:00
10:54 AM,75.0,14.0,10,30.29,10.0,Calm,Calm,-,N/A,,Clear,0,2013-02-28 18:54:00
11:54 AM,79.0,14.0,9,30.27,10.0,Variable,5.8,-,N/A,,Clear,0,2013-02-28 19:54:00
12:54 PM,79.0,19.9,11,30.24,10.0,WSW,10.4,-,N/A,,Clear,240,2013-02-28 20:54:00
1:54 PM,77.0,16.0,10,30.23,10.0,WSW,9.2,-,N/A,,Clear,240,2013-02-28 21:54:00
2:54 PM,78.1,12.9,8,30.22,10.0,WSW,4.6,-,N/A,,Clear,250,2013-02-28 22:54:00
3:54 PM,78.1,15.1,9,30.21,10.0,WNW,9.2,16.1,N/A,,Clear,290,2013-02-28 23:54:00
4:54 PM,73.9,14.0,10,30.22,10.0,WNW,8.1,-,N/A,,Clear,290,2013-03-01 00:54:00
5:54 PM,70.0,18.0,14,30.24,10.0,Calm,Calm,-,N/A,,Clear,0,2013-03-01 01:54:00
6:54 PM,63.0,30.9,30,30.27,10.0,East,6.9,-,N/A,,Clear,80,2013-03-01 02:54:00
7:54 PM,55.0,28.9,37,30.30,10.0,Calm,Calm,-,N/A,,Clear,0,2013-03-01 03:54:00
8:54 PM,53.1,28.9,40,30.30,10.0,NE,5.8,-,N/A,,Clear,50,2013-03-01 04:54:00
9:54 PM,48.9,30.0,48,30.31,10.0,Calm,Calm,-,N/A,,Clear,0,2013-03-01 05:54:00
10:54 PM,45.0,28.9,53,30.30,10.0,Calm,Calm,-,N/A,,Clear,0,2013-03-01 06:54:00
11:54 PM,44.1,28.9,55,30.30,10.0,Calm,Calm,-,N/A,,Clear,0,2013-03-01 07:54:00